| time (UTC) | temp C | wind direction | speed KPH | gust KPH | rain 1hr cm | rain 24hr cm | rain mn cm | humidity % | barometer mb |
| 20260906220025 | 33 | 110 | 1.6 | 20.9 | 0.00 | 0.00 | 0.00 | 29 | 1001.2 |
| 20260906214535 | 33 | 96 | 1.6 | 17.7 | 0.00 | 0.00 | 0.00 | 30 | 1001.4 |
| 20260906213022 | 33 | 26 | 4.8 | 17.7 | 0.00 | 0.00 | 0.00 | 29 | 1001.7 |
| 20260906211520 | 33 | 123 | 4.8 | 16.1 | 0.00 | 0.00 | 0.00 | 29 | 1001.8 |
| 20260906210028 | 33 | 117 | 1.6 | 8.0 | 0.00 | 0.00 | 0.00 | 29 | 1002.0 |
| 20260906204516 | 32 | 58 | 1.6 | 8.0 | 0.00 | 0.00 | 0.00 | 30 | 1002.3 |
| 20260906203009 | 32 | 146 | 0.0 | 16.1 | 0.00 | 0.00 | 0.00 | 30 | 1002.5 |
| 20260906201508 | 32 | 68 | 1.6 | 8.0 | 0.00 | 0.00 | 0.00 | 31 | 1002.7 |
| 20260906200004 | 31 | 50 | 0.0 | 6.4 | 0.00 | 0.00 | 0.00 | 33 | 1003.0 |
| 20260906194502 | 31 | 172 | 1.6 | 11.3 | 0.00 | 0.00 | 0.00 | 31 | 1003.4 |
| 20260906193059 | 31 | 103 | 3.2 | 11.3 | 0.00 | 0.00 | 0.00 | 32 | 1003.6 |
| 20260906191558 | 30 | 122 | 1.6 | 12.9 | 0.00 | 0.00 | 0.00 | 33 | 1003.9 |
| 20260906190052 | 30 | 138 | 0.0 | 8.0 | 0.00 | 0.00 | 0.00 | 36 | 1004.1 |
| 20260906184549 | 29 | 134 | 4.8 | 11.3 | 0.00 | 0.00 | 0.00 | 38 | 1004.5 |
| 20260906183046 | 28 | 107 | 1.6 | 9.7 | 0.00 | 0.00 | 0.00 | 38 | 1004.8 |
| 20260906181545 | 28 | 124 | 1.6 | 9.7 | 0.00 | 0.00 | 0.00 | 39 | 1005.1 |
| 20260906180041 | 27 | 70 | 1.6 | 8.0 | 0.00 | 0.00 | 0.00 | 42 | 1005.2 |
| 20260906174540 | 27 | 83 | 1.6 | 4.8 | 0.00 | 0.00 | 0.00 | 42 | 1005.6 |
| 20260906173048 | 27 | 146 | 0.0 | 3.2 | 0.00 | 0.00 | 0.00 | 43 | 1005.9 |
| 20260906171534 | 26 | 302 | 0.0 | 4.8 | 0.00 | 0.00 | 0.00 | 45 | 1006.3 |
| 20260906170034 | 26 | 52 | 0.0 | 4.8 | 0.00 | 0.00 | 0.00 | 46 | 1006.5 |
| 20260906164530 | 25 | 104 | 0.0 | 3.2 | 0.00 | 0.00 | 0.00 | 48 | 1006.9 |
| 20260906163027 | 25 | 262 | 0.0 | 3.2 | 0.00 | 0.00 | 0.00 | 50 | 1007.0 |
| 20260906161529 | 24 | 132 | 0.0 | 3.2 | 0.00 | 0.00 | 0.00 | 49 | 1006.9 |
| 20260906160031 | 23 | 82 | 0.0 | 4.8 | 0.00 | 0.00 | 0.00 | 55 | 1006.8 |
| 20260906154535 | 23 | 34 | 0.0 | 8.0 | 0.00 | 0.00 | 0.00 | 60 | 1006.8 |
| 20260906153022 | 23 | 64 | 0.0 | 0.0 | 0.00 | 0.00 | 0.00 | 59 | 1007.1 |
| 20260906151518 | 22 | 150 | 0.0 | 0.0 | 0.00 | 0.00 | 0.00 | 61 | 1007.2 |
| 20260906150021 | 21 | 290 | 0.0 | 0.0 | 0.00 | 0.00 | 0.00 | 63 | 1007.4 |
| 20260906144518 | 21 | 272 | 0.0 | 0.0 | 0.00 | 0.00 | 0.00 | 64 | 1007.4 |
| 20260906143016 | 20 | 312 | 0.0 | 1.6 | 0.00 | 0.00 | 0.00 | 65 | 1007.3 |
| 20260906141516 | 20 | 274 | 0.0 | 0.0 | 0.00 | 0.00 | 0.00 | 68 | 1007.4 |
| 20260906140018 | 19 | 271 | 0.0 | 3.2 | 0.00 | 0.00 | 0.00 | 70 | 1007.3 |
| 20260906134515 | 18 | 214 | 0.0 | 0.0 | 0.00 | 0.00 | 0.00 | 74 | 1007.5 |
| 20260906133014 | 18 | 214 | 0.0 | 0.0 | 0.00 | 0.00 | 0.00 | 70 | 1007.4 |
| 20260906131516 | 17 | 98 | 0.0 | 0.0 | 0.00 | 0.00 | 0.00 | 78 | 1007.2 |
| 20260906130028 | 16 | 98 | 0.0 | 0.0 | 0.00 | 0.00 | 0.00 | 82 | 1007.2 |
| 20260906124516 | 16 | 98 | 0.0 | 0.0 | 0.00 | 0.00 | 0.00 | 81 | 1007.0 |
| 20260906123014 | 16 | 98 | 0.0 | 0.0 | 0.00 | 0.00 | 0.00 | 80 | 1007.0 |
| 20260906121509 | 16 | 98 | 0.0 | 0.0 | 0.00 | 0.00 | 0.00 | 79 | 1007.0 |
| 20260906120007 | 16 | 98 | 0.0 | 0.0 | 0.00 | 0.00 | 0.00 | 78 | 1007.0 |
| 20260906114507 | 16 | 98 | 0.0 | 0.0 | 0.00 | 0.00 | 0.00 | 76 | 1007.0 |
| 20260906113004 | 16 | 98 | 0.0 | 0.0 | 0.00 | 0.00 | 0.00 | 74 | 1006.9 |
| 20260906111502 | 16 | 98 | 0.0 | 0.0 | 0.00 | 0.00 | 0.00 | 72 | 1006.8 |
| 20260906110100 | 16 | 98 | 0.0 | 0.0 | 0.00 | 0.00 | 0.00 | 71 | 1006.7 |
| 20260906104557 | 16 | 98 | 0.0 | 0.0 | 0.00 | 0.00 | 0.00 | 70 | 1006.5 |
| 20260906103056 | 16 | 98 | 0.0 | 0.0 | 0.00 | 0.00 | 0.00 | 70 | 1006.3 |
| 20260906101553 | 17 | 98 | 0.0 | 0.0 | 0.00 | 0.00 | 0.00 | 68 | 1006.1 |
| 20260906100050 | 17 | 98 | 0.0 | 0.0 | 0.00 | 0.00 | 0.00 | 67 | 1006.3 |
| 20260906094548 | 17 | 98 | 0.0 | 0.0 | 0.00 | 0.00 | 0.00 | 66 | 1006.2 |
| 20260906093048 | 17 | 98 | 0.0 | 0.0 | 0.00 | 0.00 | 0.00 | 65 | 1006.3 |
| 20260906091544 | 18 | 98 | 0.0 | 0.0 | 0.00 | 0.00 | 0.00 | 63 | 1006.1 |
| 20260906090041 | 18 | 98 | 0.0 | 0.0 | 0.00 | 0.00 | 0.00 | 61 | 1005.9 |
| 20260906084538 | 19 | 98 | 0.0 | 0.0 | 0.00 | 0.00 | 0.00 | 58 | 1005.7 |
| 20260906083040 | 20 | 98 | 0.0 | 0.0 | 0.00 | 0.00 | 0.00 | 56 | 1005.6 |
| 20260906081536 | 21 | 98 | 0.0 | 0.0 | 0.00 | 0.00 | 0.00 | 52 | 1005.7 |
| 20260906080029 | 21 | 217 | 0.0 | 4.8 | 0.00 | 0.00 | 0.00 | 51 | 1005.7 |
| 20260906074527 | 21 | 230 | 0.0 | 6.4 | 0.00 | 0.00 | 0.00 | 51 | 1005.6 |
| 20260906073027 | 21 | 237 | 0.0 | 4.8 | 0.00 | 0.00 | 0.00 | 51 | 1005.5 |
| 20260906071525 | 21 | 158 | 0.0 | 4.8 | 0.00 | 0.00 | 0.00 | 51 | 1005.5 |
| 20260906070023 | 21 | 226 | 0.0 | 4.8 | 0.00 | 0.00 | 0.00 | 51 | 1005.2 |
| 20260906064522 | 22 | 283 | 0.0 | 0.0 | 0.00 | 0.00 | 0.00 | 48 | 1005.2 |
| 20260906063017 | 22 | 263 | 0.0 | 4.8 | 0.00 | 0.00 | 0.00 | 46 | 1005.4 |
| 20260906061513 | 22 | 231 | 0.0 | 3.2 | 0.00 | 0.00 | 0.00 | 44 | 1005.9 |
| 20260906060009 | 23 | 127 | 0.0 | 6.4 | 0.00 | 0.00 | 0.00 | 43 | 1006.1 |
| 20260906054509 | 23 | 119 | 0.0 | 3.2 | 0.00 | 0.00 | 0.00 | 41 | 1006.1 |
| 20260906053009 | 24 | 278 | 0.0 | 1.6 | 0.00 | 0.00 | 0.00 | 39 | 1006.1 |
| 20260906051509 | 23 | 288 | 1.6 | 6.4 | 0.00 | 0.00 | 0.00 | 41 | 1006.1 |
| 20260906050023 | 23 | 73 | 0.0 | 1.6 | 0.00 | 0.00 | 0.00 | 41 | 1006.1 |
| 20260906044507 | 23 | 103 | 0.0 | 0.0 | 0.00 | 0.00 | 0.00 | 40 | 1006.2 |
| 20260906043010 | 23 | 103 | 0.0 | 0.0 | 0.00 | 0.00 | 0.00 | 39 | 1006.2 |
| 20260906041507 | 23 | 103 | 0.0 | 3.2 | 0.00 | 0.00 | 0.00 | 38 | 1006.0 |
| 20260906040007 | 22 | 120 | 0.0 | 3.2 | 0.00 | 0.00 | 0.00 | 41 | 1005.7 |
| 20260906034508 | 22 | 98 | 0.0 | 0.0 | 0.00 | 0.00 | 0.00 | 42 | 1004.7 |
| 20260906033005 | 23 | 98 | 0.0 | 0.0 | 0.00 | 0.00 | 0.00 | 40 | 1004.7 |
| 20260906031505 | 23 | 98 | 0.0 | 0.0 | 0.00 | 0.00 | 0.00 | 39 | 1004.5 |
| 20260906030005 | 24 | 98 | 0.0 | 0.0 | 0.00 | 0.00 | 0.00 | 37 | 1004.1 |
| 20260906024505 | 25 | 98 | 0.0 | 0.0 | 0.00 | 0.00 | 0.00 | 36 | 1003.9 |
| 20260906023005 | 26 | 98 | 0.0 | 0.0 | 0.00 | 0.00 | 0.00 | 33 | 1003.9 |
| 20260906021503 | 27 | 98 | 0.0 | 1.6 | 0.00 | 0.00 | 0.00 | 29 | 1003.7 |
| 20260906020004 | 27 | 57 | 0.0 | 3.2 | 0.00 | 0.00 | 0.00 | 27 | 1003.4 |
| 20260906014503 | 28 | 300 | 0.0 | 4.8 | 0.00 | 0.00 | 0.00 | 27 | 1003.1 |
| 20260906013101 | 28 | 298 | 0.0 | 6.4 | 0.00 | 0.00 | 0.00 | 26 | 1002.8 |
| 20260906011605 | 28 | 20 | 0.0 | 0.0 | 0.00 | 0.00 | 0.00 | 29 | 1002.6 |
| 20260906010059 | 30 | 20 | 0.0 | 0.0 | 0.00 | 0.00 | 0.00 | 26 | 1002.6 |
| 20260906004559 | 30 | 20 | 0.0 | 0.0 | 0.00 | 0.00 | 0.00 | 23 | 1002.6 |
| 20260906003106 | 31 | 304 | 0.0 | 1.6 | 0.00 | 0.00 | 0.00 | 22 | 1002.6 |
| 20260906001557 | 31 | 23 | 0.0 | 8.0 | 0.00 | 0.00 | 0.00 | 21 | 1002.5 |
| 20260906000056 | 32 | 20 | 0.0 | 4.8 | 0.00 | 0.00 | 0.00 | 21 | 1002.5 |
| 20260905234611 | 32 | 269 | 0.0 | 6.4 | 0.00 | 0.00 | 0.00 | 20 | 1002.4 |
| 20260905233054 | 33 | 27 | 4.8 | 9.7 | 0.00 | 0.00 | 0.00 | 19 | 1002.4 |
| 20260905231553 | 33 | 323 | 0.0 | 8.0 | 0.00 | 0.00 | 0.00 | 19 | 1002.4 |
| 20260905230053 | 33 | 62 | 0.0 | 6.4 | 0.00 | 0.00 | 0.00 | 20 | 1002.4 |
| 20260905224551 | 33 | 89 | 0.0 | 6.4 | 0.00 | 0.00 | 0.00 | 20 | 1002.3 |
| 20260905223052 | 33 | 13 | 0.0 | 8.0 | 0.00 | 0.00 | 0.00 | 20 | 1002.3 |
| 20260905221550 | 33 | 171 | 0.0 | 8.0 | 0.00 | 0.00 | 0.00 | 19 | 1002.4 |